Location: Winnipauk Village
(41.1295°N, 73.4171°W)
Time: 14:26:32
(UTC+00:00)

X-37B - Pass Details

Date: 02 August 2021
Orbit: 381 x 393 km, 45.0° (Epoch: 29 August)

Event Time Altitude Azimuth Distance (km) Brightness Sun altitude
Exits shadow 07:12:42 10° 104° (ESE) 1,392 3.6 -23.6°
Drops below altitude 10° 07:12:42 10° 104° (ESE) 1,393 3.6 -23.6°
Sets 07:15:21 0° 80° (E) 2,250 5.1 -23.4°
